Location: Triton
(47.6048°N, 122.9899°W)
Time: 15:43:25
(UTC+00:00)

ARIANE 6 FM1 Upper Stage - Pass Details

Date: 22 February 2026
Orbit: 523 x 607 km, 62.0° (Epoch: 8 March)

Event Time Altitude Azimuth Distance (km) Brightness Sun altitude
Rises 03:15:14 0° 301° (WNW) 2,658 7.2 -15.9°
Reaches altitude 10° 03:18:23 10° 274° (W) 1,767 6.6 -16.4°
Maximum altitude 03:20:18 13° 245° (WSW) 1,567 5.8 -16.8°
Drops below altitude 10° 03:22:14 10° 215° (SW) 1,771 5.6 -17.1°
Sets 03:25:24 0° 188° (S) 2,668 6.2 -17.6°
